Погода в Народном

Россия / Воронежская область     51°34′44″N   41°48′06″E
темп.,
°C
ветер,
м/с
пор.,
м/с
влажн.,
%
обл.,
%
осадки,
мм/ч
давл.,
гПа
погр.,
м
12 апреля, пн
пн1200:00+6св51096100 0.0 1027219
03:00+6св51096100 0.0 1027200
06:00+6всв51293100 0.0 1027219
09:00+13в61073100 0.0 1027329
12:00+20вюв7103997 0.0 1026925
15:00+21вюв7103783 0.0 10251606
18:00+18вюв6114678 0.0 1026258
21:00+13вюв4126027 0.0 1027200
13 апреля, вт
вт1300:00+11вюв4136817 0.0 1027221
03:00+9вюв412625 0.0 1028199
06:00+8вюв410685 0.0 1028162
09:00+14вюв59488 0.0 1028364
12:00+19юв68355 0.0 10271020
15:00+20юв783147 0.0 10261845
18:00+17вюв510400 0.0 1025257
21:00+12вюв411575 0.0 1026182
14 апреля, ср
ср1400:00+10вюв4116549 0.0 1025196
03:00+10вюв41267100 0.0 1024233
06:00+8вюв411729 0.0 1024213
09:00+14юв69485 0.0 1023483
12:00+18вюв683645 0.0 10211115
15:00+20юв68315 0.0 10201812
18:00+17вюв4841100 0.0 1019179
21:00+13вюв41056100 0.0 1019178
15 апреля, чт
чт1500:00+11вюв4965100 0.0 1019167
03:00+10вюв366899 0.0 101897
06:00+9вюв366997 0.0 1018103
09:00+14вюв5854100 0.0 1017405
12:00+18вюв5643100 0.0 10161055
15:00+20ююв4633100 0.0 10142092
18:00+17ююв2242100 0.0 101425
21:00+15ююв1145100 0.0 101410
16 апреля, пт
пт1600:00+14всв3351100 0.0 101342
03:00+12св3467100 0.1 101258
06:00+10св367722 0.0 1011128
09:00+15юв225879 0.0 1011467
12:00+19зюз3446100 0.0 10111346
15:00+17юз4757100 0.1 1011250
18:00+16юз36597 0.1 1011243
21:00+12зюз357582 0.2 101189